Weather History for KEMP - December, 2012

Change the Weather History Date:

Thursday, December 20, 2012

  Actual Average Record
Temperature  
Mean Temperature 29 °F 32 °F  
Max Temperature 35 °F 42 °F 55 °F (2001)
Min Temperature 22 °F 22 °F 6 °F (1996)
Degree Days  
Heating Degree Days 36 33  
Month to date heating degree days 456 619  
Since 1 July heating degree days 1331 1559  
Cooling Degree Days 0 0  
Month to date cooling degree days 0 0  
Year to date cooling degree days 1912 1403  
Moisture  
Dew Point 22 °F    
Average Humidity 78    
Maximum Humidity 92    
Minimum Humidity 63    
Precipitation  
Precipitation 0.01 in 0.04 in 0.90 in (2006)
Month to date precipitation 0.21 0.98  
Year to date precipitation 21.39 36.02  
Sea Level Pressure  
Sea Level Pressure 29.92 in    
Wind  
Wind Speed 21 mph (NW)    
Max Wind Speed 40 mph    
Max Gust Speed 54 mph    
Visibility 5 miles    
Events Fog , Snow    
T = Trace of Precipitation, MM = Missing Value Source: NWS Daily Summary

Daily Weather History Graph

Daily Weather History Graph

Search for Another Location

Airport or City:

Trip Planner

Search our weather history database for the weather conditions in past years. The results will help you decide how hot, cold, wet, or windy it might be!

Date:

Astronomy

Dec. 20, 2012 Rise Set
Actual Time 7:37 AM CST 5:07 PM CST
Civil Twilight 7:08 AM CST 5:37 PM CST
Nautical Twilight 6:34 AM CST 6:10 PM CST
Astronomical Twilight 6:02 AM CST 6:42 PM CST
Moon 12:22 PM CST (12/20) 12:30 AM CST (12/20)
Length of Visible Light 10h 29m
Length of Day
9h 29m
First Quarter, 55% of the Moon is Illuminated
Dec 20
First Quarter
Dec 28
Full
Jan 4
Last Quarter
Jan 11
New
Jan 18
First Quarter

Hourly Weather History & Observations

Time (CST) Temp. Windchill Dew Point Humidity Pressure Visibility Wind Dir Wind Speed Gust Speed Precip Events Conditions
12:53 AM 34.0 °F 23.0 °F 32.0 °F 92% 29.55 in 8.0 mi NNW 18.4 mph 25.3 mph 0.00 in   Overcast
1:13 AM 33.8 °F 21.6 °F 30.2 °F 87% 29.54 in 7.0 mi NW 23.0 mph 29.9 mph 0.00 in Snow Light Snow
1:26 AM 33.8 °F 23.5 °F 30.2 °F 87% 29.55 in 1.8 mi NW 16.1 mph 26.5 mph 0.00 in Snow Light Snow
1:34 AM 33.8 °F 22.2 °F 30.2 °F 87% 29.55 in 1.2 mi NW 20.7 mph 26.5 mph 0.00 in Snow Light Snow
1:49 AM 32.0 °F 20.5 °F 30.2 °F 93% 29.56 in 1.5 mi NW 18.4 mph 34.5 mph 0.00 in Snow Light Snow
1:53 AM 32.0 °F 18.6 °F 30.9 °F 96% 29.60 in 1.2 mi NW 25.3 mph 34.5 mph 0.00 in Snow Light Snow
2:00 AM 32.0 °F 18.9 °F 30.2 °F 93% 29.58 in 0.8 mi NW 24.2 mph 33.4 mph 0.00 in Snow Light Snow
2:15 AM 30.2 °F 15.7 °F 30.2 °F 100% 29.59 in 0.5 mi NNW 27.6 mph 43.7 mph 0.00 in Fog , Snow Snow
2:53 AM 30.0 °F 14.9 °F 28.0 °F 92% 29.66 in 0.8 mi NW 29.9 mph 54.1 mph 0.01 in Snow Light Snow
3:11 AM 30.2 °F 15.7 °F 28.4 °F 93% 29.65 in 0.8 mi NW 27.6 mph 46.0 mph 0.00 in Snow Light Snow
3:20 AM 30.2 °F 16.2 °F 28.4 °F 93% 29.66 in 1.0 mi NW 25.3 mph 51.8 mph 0.00 in Snow Light Snow
3:42 AM 28.4 °F 11.8 °F 26.6 °F 93% 29.69 in 0.5 mi NW 34.5 mph 46.0 mph 0.00 in Fog , Snow Snow
3:53 AM 28.0 °F 10.9 °F 26.1 °F 92% 29.73 in 0.5 mi NW 36.8 mph 43.7 mph 0.00 in Fog , Snow Snow
4:53 AM 27.0 °F 11.3 °F 24.1 °F 89% 29.79 in 0.5 mi NW 27.6 mph 50.6 mph 0.00 in Fog , Snow Snow
5:14 AM 26.6 °F 10.3 °F 24.8 °F 93% 29.79 in 0.8 mi NW 29.9 mph 44.9 mph 0.00 in Snow Light Snow
5:44 AM 26.6 °F 11.1 °F 24.8 °F 93% 29.82 in 1.0 mi NW 26.5 mph 42.6 mph 0.00 in Snow Light Snow
5:49 AM 26.6 °F 10.0 °F 24.8 °F 93% 29.83 in 1.2 mi NW 31.1 mph 42.6 mph 0.00 in Snow Light Snow
5:53 AM 26.1 °F 8.8 °F 23.0 °F 88% 29.86 in 1.0 mi NW 33.4 mph 44.9 mph 0.00 in Snow Light Snow
6:03 AM 26.6 °F 10.8 °F 23.0 °F 86% 29.84 in 1.0 mi NW 27.6 mph 48.3 mph 0.00 in Snow Light Snow
6:10 AM 24.8 °F 8.4 °F 23.0 °F 93% 29.85 in 1.2 mi NW 27.6 mph 41.4 mph 0.00 in Snow Light Snow
6:16 AM 24.8 °F 9.0 °F 21.2 °F 86% 29.86 in 1.5 mi NW 25.3 mph 35.7 mph 0.00 in Snow Light Snow
6:25 AM 24.8 °F 7.6 °F 21.2 °F 86% 29.86 in 2.0 mi NW 31.1 mph 38.0 mph 0.00 in Snow Light Snow
6:33 AM 24.8 °F 8.7 °F 21.2 °F 86% 29.87 in 2.5 mi NW 26.5 mph 38.0 mph 0.00 in Snow Light Snow
6:53 AM 25.0 °F 9.5 °F 19.9 °F 81% 29.93 in 8.0 mi NW 24.2 mph 41.4 mph 0.00 in   Mostly Cloudy
7:53 AM 24.1 °F 6.9 °F 18.0 °F 77% 29.98 in 9.0 mi NW 29.9 mph 38.0 mph N/A   Clear
8:53 AM 24.1 °F 7.7 °F 16.0 °F 71% 30.04 in 10.0 mi NW 26.5 mph 38.0 mph N/A   Clear
9:53 AM 24.1 °F 9.4 °F 16.0 °F 71% 30.09 in 10.0 mi NW 20.7 mph 33.4 mph N/A   Clear
10:53 AM 25.0 °F 9.5 °F 16.0 °F 69% 30.13 in 10.0 mi NW 24.2 mph 38.0 mph N/A   Clear
11:53 AM 26.1 °F 10.7 °F 17.1 °F 69% 30.15 in 10.0 mi WNW 25.3 mph 33.4 mph N/A   Clear
12:53 PM 28.0 °F 14.6 °F 18.0 °F 66% 30.16 in 10.0 mi NW 20.7 mph 29.9 mph N/A   Clear
1:53 PM 28.9 °F 15.1 °F 19.0 °F 67% 30.18 in 10.0 mi WNW 23.0 mph 29.9 mph N/A   Clear
2:53 PM 30.0 °F 17.5 °F 19.9 °F 66% 30.21 in 10.0 mi WNW 19.6 mph 28.8 mph N/A   Clear
3:53 PM 30.9 °F 18.1 °F 19.0 °F 61% 30.24 in 10.0 mi WNW 21.9 mph 28.8 mph N/A   Clear
4:53 PM 28.9 °F 18.2 °F 17.1 °F 61% 30.26 in 10.0 mi WNW 13.8 mph - N/A   Clear
5:53 PM 27.0 °F 13.9 °F 18.0 °F 69% 30.26 in 10.0 mi WSW 18.4 mph 26.5 mph N/A   Clear
6:53 PM 25.0 °F 14.8 °F 17.1 °F 72% 30.28 in 10.0 mi WNW 10.4 mph - N/A   Clear
7:53 PM 25.0 °F 14.8 °F 16.0 °F 69% 30.30 in 10.0 mi WNW 10.4 mph - N/A   Clear
8:53 PM 23.0 °F 14.7 °F 15.1 °F 72% 30.32 in 10.0 mi West 6.9 mph - N/A   Clear
9:53 PM 24.1 °F 14.4 °F 16.0 °F 71% 30.33 in 10.0 mi West 9.2 mph - N/A   Clear
10:53 PM 23.0 °F 15.8 °F 15.1 °F 72% 30.34 in 10.0 mi West 5.8 mph - N/A   Clear
11:53 PM 21.9 °F 13.4 °F 14.0 °F 72% 30.34 in 10.0 mi West 6.9 mph - N/A   Clear